Time,TemperatureF,DewpointF,PressureIn,WindDirection,WindDirectionDegrees,WindSpeedMPH,WindSpeedGustMPH,Humidity,HourlyPrecipIn,Conditions,Clouds,dailyrainin,SoftwareType,DateUTC
2013-09-11 00:05:00,79.9,65.0,30.01,SW,230,2.9,7.0,53,0.00,NA,NA,0.00,meteo_script,2013-09-11 05:05:00,
2013-09-11 00:35:00,78.9,64.9,30.01,West,264,1.7,4.0,55,0.00,NA,NA,0.00,meteo_script,2013-09-11 05:35:00,
2013-09-11 01:05:00,78.0,66.1,30.02,West,266,0.8,4.0,60,0.00,NA,NA,0.00,meteo_script,2013-09-11 06:05:00,
2013-09-11 01:35:00,77.3,66.7,30.03,North,0,0.0,0.0,63,0.00,NA,NA,0.00,meteo_script,2013-09-11 06:35:00,
2013-09-11 02:05:00,76.9,66.8,30.03,North,0,0.0,0.0,65,0.00,NA,NA,0.00,meteo_script,2013-09-11 07:05:00,
2013-09-11 02:35:00,76.2,66.5,30.04,North,0,0.0,0.0,66,0.00,NA,NA,0.00,meteo_script,2013-09-11 07:35:00,
2013-09-11 03:05:00,75.2,66.4,30.06,North,0,0.0,0.0,68,0.00,NA,NA,0.00,meteo_script,2013-09-11 08:05:00,
2013-09-11 03:35:00,74.3,66.4,30.05,West,266,0.5,2.0,71,0.00,NA,NA,0.00,meteo_script,2013-09-11 08:35:00,
2013-09-11 04:05:00,73.7,65.8,30.05,North,0,0.0,0.0,71,0.00,NA,NA,0.00,meteo_script,2013-09-11 09:05:00,
2013-09-11 04:35:00,72.6,64.8,30.05,North,0,0.0,0.0,71,0.00,NA,NA,0.00,meteo_script,2013-09-11 09:35:00,
2013-09-11 05:05:00,71.8,63.0,30.05,North,0,0.0,0.0,67,0.00,NA,NA,0.00,meteo_script,2013-09-11 10:05:00,
2013-09-11 05:35:00,71.2,64.1,30.06,North,0,0.0,0.0,73,0.00,NA,NA,0.00,meteo_script,2013-09-11 10:35:00,
2013-09-11 06:05:00,71.1,64.0,30.06,North,0,0.0,0.0,73,0.00,NA,NA,0.00,meteo_script,2013-09-11 11:05:00,
2013-09-11 06:35:00,70.6,62.5,30.13,West,268,0.8,4.0,70,0.00,NA,NA,0.00,meteo_script,2013-09-11 11:35:00,
2013-09-11 07:05:00,68.5,63.5,30.12,WNW,290,0.3,2.0,80,0.18,NA,NA,0.09,meteo_script,2013-09-11 12:05:00,
2013-09-11 07:35:00,67.8,63.6,30.11,North,0,0.0,0.0,83,0.04,NA,NA,0.11,meteo_script,2013-09-11 12:35:00,
2013-09-11 08:05:00,68.0,64.1,30.10,North,0,0.0,0.0,84,0.02,NA,NA,0.12,meteo_script,2013-09-11 13:05:00,
2013-09-11 08:35:00,67.9,64.3,30.09,North,0,0.0,0.0,85,0.00,NA,NA,0.12,meteo_script,2013-09-11 13:35:00,
2013-09-11 09:05:00,68.0,64.4,30.09,WSW,249,2.1,4.0,85,0.00,NA,NA,0.12,meteo_script,2013-09-11 14:05:00,
2013-09-11 09:35:00,68.4,64.8,30.08,North,0,0.0,0.0,85,0.00,NA,NA,0.12,meteo_script,2013-09-11 14:35:00,
2013-09-11 10:05:00,69.2,65.5,30.08,SW,216,0.1,1.0,85,0.00,NA,NA,0.12,meteo_script,2013-09-11 15:05:00,
2013-09-11 10:35:00,70.6,66.3,30.07,North,0,0.0,0.0,82,0.00,NA,NA,0.12,meteo_script,2013-09-11 15:35:00,
2013-09-11 11:05:00,71.1,66.1,30.10,SW,235,0.4,2.0,80,0.00,NA,NA,0.12,meteo_script,2013-09-11 16:05:00,
2013-09-11 11:35:00,71.5,65.8,30.09,West,265,1.4,4.0,78,0.00,NA,NA,0.12,meteo_script,2013-09-11 16:35:00,
2013-09-11 12:05:00,71.6,65.9,30.10,West,269,3.7,7.0,78,0.00,NA,NA,0.12,meteo_script,2013-09-11 17:05:00,
2013-09-11 12:35:00,72.1,65.8,30.10,West,279,0.0,1.0,76,0.02,NA,NA,0.13,meteo_script,2013-09-11 17:35:00,
2013-09-11 13:05:00,73.9,66.6,30.10,West,266,0.8,3.0,73,0.00,NA,NA,0.13,meteo_script,2013-09-11 18:05:00,
2013-09-11 13:35:00,75.6,66.4,30.09,West,265,4.5,6.0,67,0.00,NA,NA,0.13,meteo_script,2013-09-11 18:35:00,
2013-09-11 14:05:00,77.8,67.3,30.09,West,267,1.0,3.0,64,0.00,NA,NA,0.13,meteo_script,2013-09-11 19:05:00,
2013-09-11 14:35:00,80.7,68.2,30.08,West,277,1.2,3.0,59,0.00,NA,NA,0.13,meteo_script,2013-09-11 19:35:00,
2013-09-11 15:05:00,81.5,67.8,30.07,West,268,2.8,5.0,56,0.00,NA,NA,0.13,meteo_script,2013-09-11 20:05:00,
2013-09-11 15:35:00,82.8,68.1,30.07,West,275,2.4,4.0,54,0.00,NA,NA,0.13,meteo_script,2013-09-11 20:35:00,
2013-09-11 16:05:00,82.6,66.7,30.06,West,263,5.9,11.0,51,0.00,NA,NA,0.13,meteo_script,2013-09-11 21:05:00,
2013-09-11 16:35:00,83.5,68.1,30.06,West,267,3.2,6.0,52,0.00,NA,NA,0.13,meteo_script,2013-09-11 21:35:00,
2013-09-11 17:05:00,83.2,67.5,30.06,West,262,3.5,6.0,51,0.00,NA,NA,0.13,meteo_script,2013-09-11 22:05:00,
2013-09-11 17:35:00,81.2,67.0,30.05,West,272,0.6,2.0,55,0.00,NA,NA,0.13,meteo_script,2013-09-11 22:35:00,
2013-09-11 18:05:00,80.8,67.1,30.05,West,275,0.6,3.0,56,0.00,NA,NA,0.13,meteo_script,2013-09-11 23:05:00,
2013-09-11 18:35:00,80.5,67.2,30.05,West,275,3.9,7.0,57,0.00,NA,NA,0.13,meteo_script,2013-09-11 23:35:00,
2013-09-11 19:05:00,79.8,67.3,30.05,West,266,3.5,6.0,59,0.00,NA,NA,0.13,meteo_script,2013-09-12 00:05:00,
2013-09-11 19:35:00,78.0,66.4,30.04,West,270,0.3,2.0,61,0.00,NA,NA,0.13,meteo_script,2013-09-12 00:35:00,
2013-09-11 20:05:00,76.3,65.9,30.04,West,269,2.1,4.0,64,0.00,NA,NA,0.13,meteo_script,2013-09-12 01:05:00,
2013-09-11 20:35:00,75.3,65.7,30.04,West,272,1.4,3.0,66,0.00,NA,NA,0.13,meteo_script,2013-09-12 01:35:00,
2013-09-11 21:05:00,74.6,65.1,30.04,West,276,1.6,3.0,66,0.00,NA,NA,0.13,meteo_script,2013-09-12 02:05:00,
2013-09-11 21:35:00,73.9,64.7,30.06,West,261,2.9,5.0,67,0.00,NA,NA,0.13,meteo_script,2013-09-12 02:35:00,
2013-09-11 22:05:00,73.2,64.7,30.05,West,261,0.7,2.0,69,0.00,NA,NA,0.13,meteo_script,2013-09-12 03:05:00,
2013-09-11 22:35:00,72.3,64.4,30.05,West,259,2.2,4.0,71,0.00,NA,NA,0.13,meteo_script,2013-09-12 03:35:00,
2013-09-11 23:05:00,71.3,64.1,30.06,West,260,2.5,3.0,73,0.00,NA,NA,0.13,meteo_script,2013-09-12 04:05:00,
2013-09-11 23:35:00,70.6,64.4,30.05,West,261,2.2,3.0,76,0.00,NA,NA,0.13,meteo_script,2013-09-12 04:35:00,